STARLINK-35163 (65507 NORAD) Tracking and Keplerian Element Data

This shows tracking and keplerian element data for the satellite.

Feedback or suggestion? Click here.




ElementValue
Catalog65507
NameSTARLINK-35163
Epoch Orbit1638
Epoch Day354.07772169
Epoch Year2025
RAAN284.1664
Inclination53.1607
Eccentricity0.0001229
Argument of Perigee49.6508
Mean Anonmoly310.4604
Mean Motion15.39636931
Decay Rate0.00028408
L11 65507U 25198R 25354.07772169 .00028408 00000+0 71714-3 0 9990
L22 65507 53.1607 284.1664 0001229 49.6508 310.4604 15.39636931 16386



Live tracking and technical data element details for STARLINK-35163 (NORAD 65507). STARLINK-35163 can be tracked NOW for your location showing map with azimuth and elevation plus other details from your city location.







IsCatalogInMostPopularTable: catalog: 65507, numindb: 2
Update: records affected: 1



GetName: 65507 STARLINK-35163

Hit Count: updated at: Sun, 08 Feb 2026 18:07:18 GMT